This is the latest recevied weather packets stored in our database for station/object OE5RBO. If no packets are shown the sender has not sent any weather packets the latest 10 day(s).
| Time | Temp. | Humidity | Pressure | Rain* | Wind** | Luminosity | Snow |
|---|---|---|---|---|---|---|---|
| 1787680279 | 16.67° C | 97% | 1016.1 hPa | 0 mm | - | - | - |
| 1787680279 | 16.67° C | 97% | 1016.2 hPa | 0 mm | - | - | - |
| 1787680035 | 16.67° C | 97% | 1016.3 hPa | 0 mm | - | - | - |
| 1787678234 | 16.67° C | 97% | 1015.9 hPa | 0 mm | - | - | - |
| 1787677633 | 16.67° C | 97% | 1015.9 hPa | 0 mm | - | - | - |
| 1787676433 | 16.67° C | 97% | 1016.1 hPa | 0 mm | - | - | - |
| 1787675832 | 17.22° C | 96% | 1015.9 hPa | 0 mm | - | - | - |
| 1787675232 | 17.22° C | 95% | 1015.9 hPa | 0 mm | - | - | - |
| 1787674631 | 17.22° C | 95% | 1015.8 hPa | 0 mm | - | - | - |
| 1787673431 | 17.22° C | 95% | 1015.9 hPa | 0 mm | - | - | - |
| 1787672830 | 17.22° C | 95% | 1015.8 hPa | 0 mm | - | - | - |
| 1787672230 | 17.22° C | 95% | 1015.8 hPa | 0 mm | - | - | - |
| 1787671629 | 16.67° C | 95% | 1015.8 hPa | 0 mm | - | - | - |
| 1787671029 | 17.22° C | 95% | 1015.7 hPa | 0 mm | - | - | - |
| 1787670429 | 17.22° C | 95% | 1015.6 hPa | 0 mm | - | - | - |
| 1787669828 | 17.22° C | 95% | 1015.5 hPa | 0 mm | - | - | - |
| 1787669228 | 17.22° C | 95% | 1015.4 hPa | 0 mm | - | - | - |
| 1787667427 | 17.22° C | 95% | 1015.2 hPa | 0 mm | - | - | - |
| 1787666827 | 17.22° C | 95% | 1015.1 hPa | 0 mm | - | - | - |
| 1787664425 | 17.78° C | 96% | 1014.8 hPa | 0 mm | - | - | - |
| 1787661423 | 17.22° C | 94% | 1014.6 hPa | 0 mm | - | - | - |
| 1787659022 | 17.78° C | 86% | 1014.2 hPa | 0 mm | - | - | - |
| 1787658421 | 17.78° C | 85% | 1014 hPa | 0 mm | - | - | - |
| 1787657821 | 18.33° C | 85% | 1014 hPa | 0 mm | - | - | - |
| 1787657221 | 18.89° C | 81% | 1013.8 hPa | 0 mm | - | - | - |
* Rain since midnight (hover to see other rain measurements)
** Current wind speed in m/s (hover to see current wind gust speed)